This is the latest recevied weather packets stored in our database for station/object W1SCW. If no packets are shown the sender has not sent any weather packets the latest 1 day(s).
| Time | Temp. | Humidity | Pressure | Rain* | Wind** | Luminosity | Snow |
|---|---|---|---|---|---|---|---|
| 1778032744 | 26.11° C | 84% | 1006 hPa | 0 mm | 1.34 m/s, 136° | 0 W/m² | - |
| 1778032442 | 26.11° C | 83% | 1006.3 hPa | 0 mm | 1.34 m/s, 184° | 0 W/m² | - |
| 1778032138 | 26.11° C | 83% | 1005.9 hPa | 0 mm | 1.79 m/s, 165° | 0 W/m² | - |
| 1778031835 | 26.11° C | 83% | 1006.2 hPa | 0 mm | 0.89 m/s, 169° | 0 W/m² | - |
| 1778031532 | 26.11° C | 83% | 1005.9 hPa | 0 mm | 1.34 m/s, 148° | 0 W/m² | - |
| 1778031230 | 26.11° C | 82% | 1005.9 hPa | 0 mm | 0.89 m/s, 150° | 0 W/m² | - |
| 1778030926 | 26.67° C | 82% | 1005.8 hPa | 0 mm | 1.34 m/s, 174° | 0 W/m² | - |
| 1778030623 | 26.67° C | 82% | 1005.7 hPa | 0 mm | 1.34 m/s, 180° | 0 W/m² | - |
| 1778030320 | 26.67° C | 82% | 1005.8 hPa | 0 mm | 0 m/s | 0 W/m² | - |
| 1778030017 | 26.67° C | 81% | 1005.5 hPa | 0 mm | 1.34 m/s, 169° | 0 W/m² | - |
| 1778029714 | 26.67° C | 81% | 1005.6 hPa | 0 mm | 0.89 m/s, 155° | 1 W/m² | - |
| 1778029412 | 26.67° C | 81% | 1005.4 hPa | 0 mm | 0.89 m/s, 166° | 1 W/m² | - |
| 1778029109 | 26.67° C | 81% | 1005.3 hPa | 0 mm | 0.89 m/s, 158° | 3 W/m² | - |
| 1778028805 | 26.67° C | 81% | 1005.1 hPa | 0 mm | 0.45 m/s, 136° | 5 W/m² | - |
| 1778028501 | 26.67° C | 80% | 1005.3 hPa | 0 mm | 1.79 m/s, 173° | 6 W/m² | - |
| 1778028199 | 26.67° C | 80% | 1005.1 hPa | 0 mm | 1.79 m/s, 163° | 11 W/m² | - |
| 1778027895 | 26.67° C | 79% | 1005.2 hPa | 0 mm | 1.34 m/s, 161° | 15 W/m² | - |
| 1778027592 | 26.67° C | 79% | 1005.4 hPa | 0 mm | 3.13 m/s, 157° | 20 W/m² | - |
| 1778027288 | 27.22° C | 79% | 1005.2 hPa | 0 mm | 1.79 m/s, 172° | 28 W/m² | - |
| 1778026984 | 27.22° C | 78% | 1005.3 hPa | 0 mm | 1.79 m/s, 146° | 34 W/m² | - |
| 1778026680 | 27.22° C | 79% | 1004.9 hPa | 0 mm | 1.79 m/s, 162° | 40 W/m² | - |
| 1778026378 | 27.22° C | 79% | 1005.1 hPa | 0 mm | 1.79 m/s, 151° | 48 W/m² | - |
| 1778026074 | 27.22° C | 79% | 1005.1 hPa | 0 mm | 2.24 m/s, 150° | 64 W/m² | - |
| 1778025772 | 27.22° C | 78% | 1005.1 hPa | 0 mm | 1.34 m/s, 166° | 56 W/m² | - |
| 1778025469 | 27.22° C | 78% | 1005.1 hPa | 0 mm | 1.34 m/s, 102° | 58 W/m² | - |
* Rain latest hour (hover to see other rain measurements)
** Current wind speed in m/s (hover to see current wind gust speed)